EW4638 Weather Reports


time (UTC)temp
F
wind
direction
speed
knots
gust
knots
rain 1hr
in
rain 24hr
in
rain mn
in
humidity
%
barometer
mb
20260509000034 67 240 0.0 0.0 0.00 0.00 0.00 41 1010.7
20260508234532 68 240 0.0 0.0 0.00 0.00 0.00 39 1010.8
20260508233039 69 240 0.0 0.0 0.00 0.00 0.00 40 1010.8
20260508231531 69 236 0.0 0.0 0.00 0.00 0.00 36 1010.9
20260508230029 70 236 0.0 0.0 0.00 0.00 0.00 35 1011.0
20260508224531 70 281 0.0 4.3 0.00 0.00 0.00 36 1011.1
20260508223038 71 210 0.0 0.9 0.00 0.00 0.00 34 1011.0
20260508221532 72 229 0.0 1.7 0.00 0.00 0.00 34 1011.0
20260508220031 73 248 1.7 6.1 0.00 0.00 0.00 33 1011.0
20260508214524 72 215 0.0 7.0 0.00 0.00 0.00 32 1011.2
20260508213022 72 229 0.0 3.5 0.00 0.00 0.00 39 1011.2
20260508211520 72 187 0.0 4.3 0.00 0.00 0.00 34 1011.5
20260508210022 72 216 0.0 3.5 0.00 0.00 0.00 35 1011.4
20260508204519 72 215 0.0 0.0 0.00 0.00 0.00 32 1011.5
20260508203023 72 220 0.0 4.3 0.00 0.00 0.00 34 1011.6
20260508201516 71 190 1.7 7.0 0.00 0.00 0.00 32 1011.8
20260508200013 71 226 0.0 7.0 0.00 0.00 0.00 35 1012.1
20260508194509 71 215 2.6 7.8 0.00 0.00 0.00 31 1012.4
20260508193007 71 141 0.0 9.6 0.00 0.00 0.00 33 1012.6
20260508191512 71 282 0.0 2.6 0.00 0.00 0.00 39 1012.9
20260508190100 70 232 0.0 0.0 0.00 0.00 0.00 36 1013.2
20260508190001 70 236 0.0 5.2 0.00 0.00 0.00 36 1013.3
20260508184600 69 163 0.0 3.5 0.00 0.00 0.00 33 1013.6
20260508183105 69 167 0.0 1.7 0.00 0.00 0.00 38 1013.9
20260508181557 69 230 0.0 0.0 0.00 0.00 0.00 35 1014.1
20260508180114 69 190 0.0 2.6 0.00 0.00 0.00 37 1014.3
20260508174605 69 267 0.9 5.2 0.00 0.00 0.00 37 1014.7
20260508173053 68 248 0.0 5.2 0.00 0.00 0.00 42 1015.0
20260508171551 68 225 0.0 0.0 0.00 0.00 0.00 39 1015.3
20260508170046 67 205 0.0 0.0 0.00 0.00 0.00 42 1015.6
20260508164545 66 229 0.0 0.0 0.00 0.00 0.00 46 1015.7
20260508163041 66 225 0.0 3.5 0.00 0.00 0.00 43 1016.1
20260508161540 65 191 0.0 0.0 0.00 0.00 0.00 46 1016.3
20260508160036 63 226 0.0 0.0 0.00 0.00 0.00 48 1016.6
20260508154533 63 222 0.0 4.3 0.00 0.00 0.00 48 1016.9
20260508153034 62 173 0.9 6.1 0.00 0.00 0.00 51 1017.0
20260508151526 61 248 0.0 1.7 0.00 0.00 0.00 47 1017.0
20260508150024 59 199 0.0 6.1 0.00 0.00 0.00 50 1017.1
20260508144518 57 226 0.0 2.6 0.00 0.00 0.00 60 1017.1
20260508143015 54 216 0.9 3.5 0.00 0.00 0.00 68 1017.3
20260508141512 51 127 0.0 0.0 0.00 0.00 0.00 82 1017.4
20260508140008 49 126 0.0 0.0 0.00 0.00 0.00 85 1017.2
20260508134511 46 74 0.0 1.7 0.00 0.00 0.00 89 1017.2
20260508133006 45 74 0.0 0.0 0.00 0.00 0.00 90 1017.1
20260508131504 43 73 0.0 0.0 0.00 0.00 0.00 90 1017.0
20260508130003 42 71 0.0 0.9 0.00 0.00 0.00 90 1017.0
20260508124559 41 71 0.0 0.0 0.00 0.00 0.00 90 1016.9
20260508123058 41 71 0.0 0.0 0.00 0.00 0.00 90 1016.8
20260508121557 40 61 0.0 2.6 0.00 0.00 0.00 90 1016.7
20260508120055 39 59 0.0 0.0 0.00 0.00 0.00 89 1016.7
20260508114606 39 59 0.0 0.9 0.00 0.00 0.00 89 1016.6
20260508113102 38 18 0.0 0.0 0.00 0.00 0.00 89 1016.5
20260508111601 38 18 0.0 0.0 0.00 0.00 0.00 89 1016.2
20260508110047 39 18 0.0 1.7 0.00 0.00 0.00 89 1016.1
20260508104544 39 16 0.0 0.0 0.00 0.00 0.00 88 1015.9
20260508103042 40 16 0.0 0.0 0.00 0.00 0.00 88 1015.7
20260508101540 40 16 0.0 0.9 0.00 0.00 0.00 88 1015.6
20260508100039 40 16 0.0 0.0 0.00 0.00 0.00 88 1015.4
20260508094540 40 16 0.0 0.0 0.00 0.00 0.00 88 1015.3
20260508093038 40 16 0.0 0.0 0.00 0.00 0.00 87 1015.6
20260508091543 41 16 0.0 0.0 0.00 0.00 0.00 88 1015.6
20260508090034 41 16 0.0 0.0 0.00 0.00 0.00 87 1015.6
20260508084533 41 16 0.0 0.0 0.00 0.00 0.00 87 1015.6
20260508083034 41 16 0.0 0.0 0.00 0.00 0.00 87 1015.5
20260508081543 41 16 0.0 0.0 0.00 0.00 0.00 86 1015.4
20260508080029 42 16 0.0 0.0 0.00 0.00 0.00 86 1015.4
20260508074529 42 16 0.0 0.0 0.00 0.00 0.00 85 1015.3
20260508073027 42 16 0.0 1.7 0.00 0.00 0.00 85 1015.5
20260508071526 42 16 0.0 0.0 0.00 0.00 0.00 84 1015.5
20260508070024 43 16 0.0 0.0 0.00 0.00 0.00 82 1015.5
20260508064527 43 16 0.0 0.0 0.00 0.00 0.00 81 1015.7
20260508063022 43 16 0.0 0.0 0.00 0.00 0.00 78 1015.6
20260508061520 43 16 0.0 0.0 0.00 0.00 0.00 80 1015.5
20260508060017 44 16 0.0 0.0 0.00 0.00 0.00 81 1015.6
20260508054516 44 16 0.0 0.0 0.00 0.00 0.00 81 1015.7
20260508053014 45 16 0.0 0.0 0.00 0.00 0.00 81 1015.8
20260508051520 46 16 0.0 0.9 0.00 0.00 0.00 77 1016.0
20260508050010 47 16 0.0 0.0 0.00 0.00 0.00 74 1015.8
20260508044507 47 16 0.0 0.0 0.00 0.00 0.00 72 1015.9
20260508043007 48 16 0.0 0.0 0.00 0.00 0.00 72 1015.6
20260508041610 49 16 0.0 0.0 0.00 0.00 0.00 70 1015.4
20260508040100 49 16 0.0 0.0 0.00 0.00 0.00 61 1015.3
20260508034600 49 16 0.0 0.0 0.00 0.00 0.00 58 1015.2
20260508033100 50 16 0.0 0.0 0.00 0.00 0.00 61 1015.3
20260508031552 50 16 0.0 0.0 0.00 0.00 0.00 66 1015.4
20260508030050 51 16 0.0 0.0 0.00 0.00 0.00 60 1015.4
20260508024555 52 16 0.0 0.0 0.00 0.00 0.00 58 1015.3
20260508023043 52 16 0.0 1.7 0.00 0.00 0.00 55 1015.1
20260508021542 53 15 0.0 0.0 0.00 0.00 0.00 52 1015.0
20260508020037 53 15 0.0 0.0 0.00 0.00 0.00 50 1014.8
20260508014526 54 16 0.0 0.0 0.00 0.03 0.00 50 1014.4
20260508013024 54 15 0.0 3.5 0.00 0.03 0.00 51 1014.2
20260508011522 55 15 0.0 0.0 0.00 0.03 0.00 52 1014.1
20260508010018 56 15 0.0 0.0 0.00 0.03 0.00 53 1013.9
20260508004514 56 15 0.0 2.6 0.00 0.08 0.00 54 1013.7
20260508003011 57 15 0.0 1.7 0.00 0.08 0.00 53 1013.6
20260508001508 58 10 0.0 1.7 0.00 0.08 0.00 52 1013.4